Showing default

PUNCH-NFI00, 63178

Orbit data source: Space-Track

PUNCH-NFI00, 63178 is a payload satellite owned by JPL (US) in SSO that was launched on Wed, 12 Mar 2025 UTC via an FALCON 9 launch vehicle from the Air Force Western Test Range (AFWTR). Payload-class satellites include a variety of spacecraft equipped with specific instruments for various scientific and technological missions. These include communications satellites like Starlink; space stations such as the ISS; scientific satellites like the Hubble; Earth observation satellites from companies like Planet Labs, Umbra, and HawkEye 360; GPS; miniature CubeSats for education and research; and military/defense satellites.

Loading next visibility...
Identifier
63178, 2025-047A
Orbit
SSO
Country
Flag of USUS
Related business
Manufacturer
BAEB
Mission
Operational Civil Astronomy
Bus & Motor
SPHEREX, Unknown motor
Mass
502 kg wet, 502 kg dry
Launch date (UTC)
2025-03-12 (6 months ago)
Launch vehicle
FALCON 9
Launch site
Air Force Western Test Range (AFWTR)
Object type
Payload
Rocket body
Debris
Shape & HBR
Cyl + Cone + 2 Pan, 1.6 m
Radar Cross Section
10.556 m², Medium (>0.1 m² and < 1m²)

Expand to show TLE details & history
Last TLE update: 19 hours ago

TLE from 19 hours ago
0 PUNCH-NFI00
1 63178U 25047A   25257.50332377  .00000472  00000-0  78952-4 0  9992
2 63178  97.9560  82.9176 0010547 330.3870  29.6741 14.74229764 27450
Epoch: 2025-09-14T12:04Z
TLE epoch observation values (Epoch: 2025-09-14T12:04:47.173Z)
Latitude
0.00004°
Longitude
-92.00035°
Altitude
644.172 km
Speed
7.539 km/s
True Right ascension
05h 31m 40s
True Declination
0° 00' 00"
Sunlit
Object was in daylight at epoch
Visualization orbit readout
Latitude
Unknown
Longitude
Unknown
Altitude
Unknown
Speed
Unknown
Apparent Right ascension
Unknown
Apparent Declination
Unknown
Sunlit
N/A
Visualization observer readout
Local Sidereal Time
23:30:52
Azimuth
Unknown
Elevation
Unknown
Doppler factor
Unknown
Orbital elements
Apogee altitude
652.055 km
Perigee altitude
637.241 km
Semi-major axis
7,022.785 km
Eccentricity
0.00105
Inclination
97.956°
RAAN
82.9176°
Arg. of periapsis
330.387°
True anomaly
29.734°
Mean anomaly
29.6741°
Eccentric anomaly
29.70404°
Mean motion
3.6879 °/min
Orbital period
97.62 mins
BSTAR
0.000078952
Loading maneuver chart data...
Computing Atmospheric mass density...
Loading historical data...
Loading historical data...
Loading historical data...
Loading historical data...
Loading historical data...
Loading historical data...
Loading historical data...
Other satellites on launch #47 in the year 2025 (2025-03-12 UTC)

Documentation

Showing up to 5 results
|